Location: Bocchiglicro
(39.4167°N, 16.7500°E)
Time: 21:33:46
(UTC+00:00)

NOSS 2-1 (C) - Pass Details

Date: 07 June 2020
Orbit: 448 x 1755 km, 63.3° (Epoch: 29 June)

Event Time Altitude Azimuth Distance (km) Brightness Sun altitude
Exits shadow 01:12:31 26° 295° (WNW) 911 4.3 -19.7°
Maximum altitude 01:13:00 27° 311° (NW) 886 4.4 -19.6°
Drops below altitude 10° 01:16:03 10° 12° (NNE) 1,630 6.7 -19.3°
Sets 01:18:29 0° 25° (NNE) 2,597 8.3 -19.0°
